Home > Weather > Hiroshima > Past weeks

Flag for Japan Past Weather in Hiroshima, Japan — Yesterday and Last 2 Weeks

Now
70 °F

Fog.


Feels Like: 65 °F
Forecast: 66 / 80 °F
Wind: No wind

Location: Iwakuni Marine Corps Air Station

Current Time: May 25, 2016 at 10:10:29 PM

Latest Report: May 25, 2016 at 8:55 PM


Visibility: 3 mi

Pressure: 29.88 "Hg

Humidity: 93%

Dew Point: 68 °F

Location of HiroshimaLocation

Past Weather in Hiroshima — Graph

°F

Hiroshima Temperature Yesterday

Maximum temperature yesterday: 82 °F (at 12:55 PM)
Minimum temperature yesterday: 64 °F (at 3:55 AM)
Average temperature yesterday: 73 °F

High & Low Weather Summary for the Past Weeks

 TemperatureHumidityPressure
High82 °F (May 24, 12:55 PM)97% (May 10, 8:55 PM)30.22 "Hg (May 10, 8:55 PM)
Low50 °F (May 17, 5:55 AM)36% (May 18, 1:55 PM)29.46 "Hg (May 11, 12:55 AM)
Average69 °F73%29.97 "Hg
* Reported May 10 8:55 PM — May 25 8:55 PM, Hiroshima, Weather by CustomWeather, © 2016

Note: Actual official high and low records may vary slightly from our data, if they occured in-between our weather recording intervals... More about our weather records

Advertising

Hiroshima Weather History for the Previous 24 Hours

Scroll right to see more
 ConditionsComfort  
Time TempWeatherWind HumidityBarometerVisibility
8:55 PM
Wed, May 25
70 °FFog.No wind93%29.88 "Hg3 mi
7:55 PM70 °FFog.3 mph97%29.88 "Hg2 mi
6:55 PM69 °FLight rain. Fog.3 mph87%29.86 "Hg2 mi
5:55 PM70 °FSprinkles. Fog.No wind87%29.85 "Hg1 mi
4:55 PM70 °FSprinkles. Fog.No wind81%29.85 "Hg4 mi
3:55 PM69 °FSprinkles. Fog.No wind93%29.85 "Hg2 mi
2:55 PM69 °FSprinkles. Fog.3 mph93%29.85 "Hg2 mi
1:55 PM70 °FSprinkles. Fog.3 mph90%29.86 "Hg2 mi
12:55 PM70 °FSprinkles. Fog.No wind93%29.85 "Hg2 mi
11:55 AM70 °FSprinkles. Fog.No wind90%29.86 "Hg2 mi
10:55 AM70 °FSprinkles. Fog.No wind90%29.87 "Hg1 mi
9:55 AM69 °FRain showers. Fog.7 mph90%29.87 "Hg1 mi
8:55 AM69 °FSprinkles. Fog.6 mph90%29.87 "Hg1 mi
7:55 AM69 °FSprinkles. Fog.5 mph93%29.86 "Hg4 mi
6:55 AM71 °FSprinkles. Fog.No wind90%29.84 "Hg6 mi
5:55 AM70 °FFog.No wind90%29.83 "Hg4 mi
4:55 AM71 °FSprinkles. Fog.5 mph87%29.83 "Hg3 mi
3:55 AM71 °FFog.6 mph87%29.83 "Hg6 mi
2:55 AM72 °FSprinkles. Fog.6 mph87%29.83 "Hg4 mi
1:55 AM72 °FRain showers. Fog.6 mph87%29.82 "Hg2 mi
12:55 AM72 °FRain showers. Fog.No wind87%29.83 "Hg2 mi
11:55 PM
Tue, May 24
74 °FSprinkles. Fog.3 mph76%29.84 "Hg3 mi
10:55 PM75 °FSprinkles. Mostly cloudy.No wind71%29.83 "HgN/A
Weather by CustomWeather, © 2016

See weather overviewHow to use our weather pages